{"data":{"norad_id":57433,"epoch":"2026-05-25T04:18:49.643136Z","epoch_age_seconds":53283,"freshness":"FRESH","line1":"1 57433U 23105D   26145.17974124 -.00002371  00000+0 -76735-4 0  9992","line2":"2 57433  43.0030 318.8588 0001574 267.4855  92.5817 15.27554828160027","mean_motion":15.27554828,"eccentricity":0.0001574,"inclination_deg":43.003,"raan_deg":318.8588,"arg_perigee_deg":267.4855,"mean_anomaly_deg":92.5817,"bstar":-7.6735e-5,"rev_number":16002,"period_min":94.268302099858,"perigee_km":482.04450854273,"apogee_km":484.20443365383,"semimajor_km":6861.2614710983,"source":"CELESTRAK","updated_at":"2026-05-25T13:38:18.319443Z"}}